This demonstration page uses our WeatherBlox Daily Observations layout. Learn more.

38.88101, -77.10428

Hourly Observations for June 6, 2016

Temp ( °F °C ) Dew Point ( °F °C ) Humidity (%) Winds ( mph kmh ) Pressure ( in mb ) Visibility ( mi km ) Precip ( " mm )
12:52 am 00:52 Mostly Cloudy 70 21.1 67 19.4 90 90 SW 5 7 29.74 1007 10 16.0934 0 0
1:52 am 01:52 Mostly Cloudy 70 21.1 66 18.9 87 87 SW 7 11 29.73 1007 10 16.0934 0 0
2:52 am 02:52 Partly Cloudy 70 21.1 67 19.4 90 90 SW 7 11 29.73 1007 10 16.0934 0 0
3:52 am 03:52 Mostly Cloudy 69 20.6 67 19.4 93 93 SSW 6 9 29.73 1007 10 16.0934 0 0
4:52 am 04:52 Mostly Cloudy 70 21.1 67 19.4 90 90 SSW 6 9 29.73 1007 10 16.0934 0 0
5:52 am 05:52 Mostly Cloudy 70 21.1 67 19.4 90 90 SW 5 7 29.75 1008 10 16.0934 0 0
6:52 am 06:52 Partly Cloudy 71 21.7 66 18.9 84 84 Calm 29.76 1008 10 16.0934 0 0
7:52 am 07:52 Partly Cloudy 74 23.3 66 18.9 76 76 WSW 6 9 29.77 1008 10 16.0934 0 0
8:52 am 08:52 Mostly Sunny 77 25 66 18.9 69 69 VRB 7 11 29.77 1008 10 16.0934 0 0
9:52 am 09:52 Mostly Sunny 80 26.7 61 16.1 52 52 W 10 17 29.77 1008 10 16.0934 0 0
10:52 am 10:52 Mostly Sunny 81 27.2 61 16.1 51 51 SW 13 20 29.76 1008 10 16.0934 0 0
11:52 am 11:52 Partly Cloudy 83 28.3 58 14.4 43 43 WSW 13 20 29.76 1008 10 16.0934 0 0
12:14 pm 12:14 Partly Cloudy 82 28 61 16 48 48 W 14 22 29.77 1008 10 16.0934 0 0
12:52 pm 12:52 Partly Cloudy 84 28.9 58 14.4 41 41 WSW 13 20 29.75 1008 10 16.0934 0 0
1:52 pm 13:52 Partly Cloudy 86 30 59 15 40 40 W 13 20 29.75 1007 10 16.0934 0 0
2:52 pm 14:52 Partly Cloudy 86 30 59 15 40 40 VRB 5 7 29.73 1007 10 16.0934 0 0
3:52 pm 15:52 Mostly Cloudy 84 28.9 58 14.4 41 41 VRB 5 7 29.71 1006 10 16.0934 0 0
4:52 pm 16:52 Mostly Cloudy 85 29.4 57 13.9 39 39 WSW 10 17 29.71 1006 10 16.0934 0 0
5:52 pm 17:52 Mostly Cloudy 82 27.8 64 17.8 55 55 S 10 17 29.7 1006 10 16.0934 0 0
6:52 pm 18:52 Mostly Cloudy 81 27.2 61 16.1 51 51 S 10 17 29.7 1006 10 16.0934 0 0
7:52 pm 19:52 Mostly Cloudy 80 26.7 63 17.2 56 56 SSW 13 20 29.69 1005 10 16.0934 0 0
8:52 pm 20:52 Mostly Cloudy 79 26.1 64 17.8 60 60 S 12 19 29.68 1005 10 16.0934 0 0
9:52 pm 21:52 Mostly Cloudy 77 25 65 18.3 66 66 S 9 15 29.68 1005 10 16.0934 0 0
10:52 pm 22:52 Cloudy 75 23.9 66 18.9 74 74 S 8 13 29.68 1005 10 16.0934 0 0
11:52 pm 23:52 Cloudy 76 24.4 67 19.4 74 74 SSW 9 15 29.67 1005 10 16.0934 0 0

Powered by AerisWeather